Location: Corralito
(10.2667°N, 66.9500°W)
Time: 02:58:51
(UTC+00:00)

CZ-4B DEB - Pass Details

Date: 11 December 2023
Orbit: 837 x 858 km, 99.0° (Epoch: 22 February)

Event Time Altitude Azimuth Distance (km) Brightness Sun altitude
Rises 22:30:49 0° 121° (ESE) 3,417 7.0 -6.2°
Reaches altitude 10° 22:35:44 10° 82° (E) 2,484 6.0 -7.3°
Maximum altitude 22:36:36 10° 72° (ENE) 2,459 5.9 -7.5°
Drops below altitude 10° 22:37:28 10° 63° (ENE) 2,485 6.0 -7.7°
Enters shadow 22:39:59 - 40° (NE) 2,832 6.4 -8.3°
